User: anonymous   Login
Location: ?
(35.6144°N, 139.6873°E)
Time: 20:56:17
(UTC+00:00)
Language:

NOSS 3-1 (C) - Orbit

View from above orbital plane
View from above orbital plane
View from above satellite
View from above satellite

Ground track
Ground track

The orbit data is extracted from the following two-line orbital elements,

1 26907U 01040C   24196.95735966 0.00000000  00000-0  00000-0 0    04
2 26907  63.3815 244.7574 0605848   7.9748 352.0252 13.41731406    00
Epoch (UTC): 14 July 2024 22:58:35
Eccentricity: 0.0605848
inclination: 63.3815°
perigee height: 649 km
apogee height: 1556 km
right ascension of ascending node: 244.7574°
argument of perigee: 7.9748°
revolutions per day: 13.41731406
mean anomaly at epoch: 352.0252°
orbit number at epoch: 0

The dashed part of the orbit path shows where the satellite is in the earth's shadow,  

DLR